This is the latest recevied weather packets stored in our database for station/object W1SCW. If no packets are shown the sender has not sent any weather packets the latest 1 day(s).
| Time | Temp. | Humidity | Pressure | Rain* | Wind** | Luminosity | Snow |
|---|---|---|---|---|---|---|---|
| 1778060303 | 24.44° C | 94% | 1006.5 hPa | 0 mm | 1.34 m/s, 149° | 0 W/m² | - |
| 1778060000 | 24.44° C | 94% | 1006.6 hPa | 0 mm | 0 m/s | 0 W/m² | - |
| 1778059698 | 24.44° C | 94% | 1006.5 hPa | 0 mm | 1.34 m/s, 218° | 0 W/m² | - |
| 1778059395 | 24.44° C | 94% | 1006.5 hPa | 0 mm | 0.89 m/s, 166° | 0 W/m² | - |
| 1778059092 | 24.44° C | 94% | 1006.4 hPa | 0 mm | 0.89 m/s, 144° | 0 W/m² | - |
| 1778058790 | 24.44° C | 94% | 1006.6 hPa | 0 mm | 1.34 m/s, 179° | 0 W/m² | - |
| 1778058487 | 24.44° C | 94% | 1006.5 hPa | 0 mm | 0.89 m/s, 162° | 0 W/m² | - |
| 1778058184 | 24.44° C | 93% | 1006.6 hPa | 0 mm | 2.24 m/s, 160° | 0 W/m² | - |
| 1778057889 | 24.44° C | 93% | 1006.6 hPa | 0 mm | 1.34 m/s, 162° | 0 W/m² | - |
| 1778057577 | 25° C | 93% | 1006.7 hPa | 0 mm | 1.34 m/s, 205° | 0 W/m² | - |
| 1778057274 | 24.44° C | 93% | 1006.8 hPa | 0 mm | 0.89 m/s, 119° | 0 W/m² | - |
| 1778056970 | 24.44° C | 93% | 1006.9 hPa | 0 mm | 0.89 m/s, 180° | 0 W/m² | - |
| 1778056667 | 24.44° C | 93% | 1006.7 hPa | 0 mm | 0.45 m/s, 166° | 0 W/m² | - |
| 1778056365 | 25° C | 93% | 1006.8 hPa | 0 mm | 1.34 m/s, 167° | 0 W/m² | - |
| 1778056062 | 25° C | 93% | 1006.9 hPa | 0 mm | 0.89 m/s, 140° | 0 W/m² | - |
| 1778055757 | 24.44° C | 93% | 1007 hPa | 0 mm | 1.34 m/s, 138° | 0 W/m² | - |
| 1778055456 | 24.44° C | 93% | 1006.8 hPa | 0 mm | 0.89 m/s, 177° | 0 W/m² | - |
| 1778055152 | 25° C | 93% | 1006.9 hPa | 0 mm | 0.89 m/s, 211° | 0 W/m² | - |
| 1778054851 | 25° C | 93% | 1007.1 hPa | 0 mm | 0.89 m/s, 201° | 0 W/m² | - |
| 1778054547 | 25° C | 93% | 1007 hPa | 0 mm | 1.79 m/s, 183° | 0 W/m² | - |
| 1778054245 | 25° C | 93% | 1007.1 hPa | 0 mm | 0 m/s | 0 W/m² | - |
| 1778053941 | 25° C | 93% | 1007.2 hPa | 0 mm | 0 m/s | 0 W/m² | - |
| 1778053639 | 25° C | 93% | 1007.4 hPa | 0 mm | 0.89 m/s, 191° | 0 W/m² | - |
| 1778053336 | 25° C | 93% | 1007.3 hPa | 0 mm | 0.89 m/s, 169° | 0 W/m² | - |
| 1778053034 | 25° C | 93% | 1007.2 hPa | 0 mm | 0.45 m/s, 171° | 0 W/m² | - |
* Rain latest hour (hover to see other rain measurements)
** Current wind speed in m/s (hover to see current wind gust speed)